sat.trackr.live / text

‹ back to catalog

STARLINK-31853

NORAD 59933 · 2024-106M

PAYLOAD ACTIVE UNKNOWN

§ Identity

Operator
Country
US
Launch date
2024-06-01
Launch site
AFETR
Launch vehicle
Mass (kg)
RCS (m²)

Purposes: comms

External: N2YO · Heavens-Above · Gunter

§ Orbital elements

Epoch: 2026-09-21T04:50:36.419424Z

Period
94.27 min
Inclination
43.0035°
Eccentricity
0.0001466
Mean motion
15.27578089 rev/d
Perigee alt
482.0 km
Apogee alt
484.1 km
Semi-major
6,861.2 km
B*
2.3357e-5
RAAN
308.3944°
Arg perigee
275.7856°
Mean anomaly
84.2828°
Rev number
13,042

§ Raw data

STARLINK-318531 59933U 24106M   26264.20181041  .00000381  00000+0  23357-4 0  99942 59933  43.0035 308.3944 0001466 275.7856  84.2828 15.27578089130428

JSON: /api/v1/satellites/59933 · /tle

For live sub-satellite position, see the globe view (requires WebGL).

§ Visibility from observer

Set your observer location to see the next 7 days of passes ≥ 10°. The values pass through the URL so the page stays shareable.

No JS? Fill the form by hand. The geolocation button needs JavaScript.